STARLINK-11503, 63142

Orbit data source: Space-Track

STARLINK-11503, 63142 is a payload satellite owned by SpaceX/Seattle (US) in LEO that was launched on Mon, 03 Mar 2025 UTC via an FALCON 9 launch vehicle from the Air Force Eastern Test Range (AFETR). Payload-class satellites include a variety of spacecraft equipped with specific instruments for various scientific and technological missions. These include communications satellites like Starlink; space stations such as the ISS; scientific satellites like the Hubble; Earth observation satellites from companies like Planet Labs, Umbra, and HawkEye 360; GPS; miniature CubeSats for education and research; and military/defense satellites.

Loading next visibility...
Identifier
63142, 2025-043L
Orbit
LEO
Country
Flag of USUS
Related business
Manufacturer
SpaceX/Seattle
Mission
Operational Commercial Communications
Bus & Motor
STARLINK V2MD, Unknown motor
Mass
960 kg wet, ~910 kg dry
Launch date (UTC)
2025-03-03 (2 years ago)
Launch vehicle
FALCON 9
Launch site
Air Force Eastern Test Range (AFETR)
Object type
Payload
Rocket body
Debris
Shape & HBR
Box + 2 Pan, 18.1 m
Radar Cross Section
36.964 m², Large (>1 m²)

Expand to show TLE details & history
Last TLE update: 9 hours ago

TLE from 9 hours ago
0 STARLINK-11503
1 63142U 25043L   26255.92232453  .00155524  00000-0  11923-2 0  9990
2 63142  43.0008 201.7179 0003580 289.7578  70.2903 15.70848875 88743
Epoch: 2026-09-12T22:08Z
TLE epoch observation values (Epoch: 2026-09-12T22:08:08.839Z)
Latitude
-0.00004°
Longitude
-122.24335°
Altitude
355.429 km
Speed
7.698 km/s
True Right ascension
13h 26m 52s
True Declination
0° 00' 00"
Sunlit
Object was in daylight at epoch
Visualization orbit readout
Latitude
Unknown
Longitude
Unknown
Altitude
Unknown
Speed
Unknown
Apparent Right ascension
Unknown
Apparent Declination
Unknown
Sunlit
N/A
Visualization observer readout
Local Sidereal Time
23:49:17
Azimuth
Unknown
Elevation
Unknown
Doppler factor
Unknown
Orbital elements
Apogee altitude
360.863 km
Perigee altitude
356.039 km
Semi-major axis
6,736.588 km
Eccentricity
0.00036
Inclination
43.0008°
RAAN
201.7179°
Arg. of periapsis
289.7578°
True anomaly
70.32893°
Mean anomaly
70.2903°
Eccentric anomaly
70.30961°
Mean motion
3.92539 °/min
Orbital period
91.71 mins
BSTAR
0.0011923
Loading maneuver chart data...
Computing Atmospheric mass density...
Loading historical data...
Loading historical data...
Loading historical data...
Loading historical data...
Loading historical data...
Loading historical data...
Loading historical data...

Documentation

Showing up to 5 results
|